EA5CEE Santa Pola ES current weather conditions

sailwx.info

Wind from 359 at 1 knots gusting 2

Air temperature 22.2° C
Dewpoint 19.8° C

Last reported at 2019-Sep-20 05:01 UTC.
Time now 2019-Sep-20 06:04 UTC

Location: N 38°13' W 000°31'.
View on Google Maps.

See reports from other nearby stations

  
Tides and Currents Weather Stations Pressure Air Temp Water Temp Dewpoint Dewpoint Depression Visibility Wind Speed Wind Dir Waves Ship Positions
date/time (UTC)wind fromknots sea level pressurealtimeterstation pressurevisibilityair tempwater tempwave heightnotes
2019-Sep-20 05:01 359 1 gusting 2 22.2
2019-Sep-20 04:46 329 0 22.2
2019-Sep-20 04:31 323 22.2
2019-Sep-20 04:16 262 22.2
2019-Sep-20 04:01 262 22.2
2019-Sep-20 03:46 332 22.2
2019-Sep-20 03:31 359 22.2
2019-Sep-20 03:16 056 2 gusting 5 22.2
2019-Sep-20 03:01 049 2 gusting 6 22.2
2019-Sep-20 02:46 051 1 gusting 6 22.8
2019-Sep-20 02:31 043 6 gusting 8 22.8
2019-Sep-20 02:16 061 3 gusting 7 22.8
2019-Sep-20 02:03 059 3 gusting 7 22.2
2019-Sep-20 01:46 070 5 gusting 6 22.8
2019-Sep-20 01:31 050 3 gusting 6 22.8
2019-Sep-20 01:17 062 4 gusting 8 22.8
2019-Sep-20 01:01 039 6 gusting 9 22.8
2019-Sep-20 00:46 080 3 gusting 7 22.8
2019-Sep-20 00:31 068 5 gusting 9 22.8
2019-Sep-20 00:15 069 6 gusting 8 22.8
2019-Sep-20 00:01 050 6 gusting 7 22.8
2019-Sep-19 23:46 067 6 gusting 9 22.8
2019-Sep-19 23:30 041 6 gusting 10 22.8
2019-Sep-19 23:15 067 5 gusting 8 22.8
2019-Sep-19 23:00 075 6 gusting 10 22.8
2019-Sep-19 22:45 067 5 gusting 8 22.8
2019-Sep-19 22:30 043 4 gusting 7 22.8
2019-Sep-19 22:15 082 4 gusting 6 22.8
2019-Sep-19 22:00 075 3 gusting 6 22.8
2019-Sep-19 21:45 078 3 gusting 6 22.8
2019-Sep-19 21:30 072 5 gusting 6 22.8
2019-Sep-19 21:15 075 4 gusting 6 22.8
2019-Sep-19 21:00 043 4 gusting 6 22.8
2019-Sep-19 20:46 063 4 gusting 6 22.8
2019-Sep-19 20:31 063 3 gusting 6 22.8
2019-Sep-19 20:17 086 4 gusting 6 22.8
2019-Sep-19 20:01 061 3 gusting 5 22.8
2019-Sep-19 19:47 071 3 gusting 6 22.8
2019-Sep-19 19:31 082 3 gusting 6 22.8
2019-Sep-19 19:16 065 4 gusting 6 22.8
2019-Sep-19 19:02 069 3 gusting 5 22.8
2019-Sep-19 18:46 058 4 gusting 6 22.8
2019-Sep-19 18:32 063 3 gusting 5 22.8
2019-Sep-19 18:17 079 2 gusting 5 22.8
2019-Sep-19 18:01 062 2 gusting 5 23.3
2019-Sep-19 17:46 083 2 gusting 4 23.3
2019-Sep-19 17:31 087 1 gusting 5 23.3
2019-Sep-19 17:16 063 2 gusting 4 23.9
2019-Sep-19 17:01 082 3 gusting 5 23.9
2019-Sep-19 16:46 068 3 gusting 5 23.9
2019-Sep-19 16:32 075 3 gusting 6 23.9
2019-Sep-19 16:16 087 4 gusting 5 24.4
2019-Sep-19 16:01 101 3 gusting 6 24.4
2019-Sep-19 15:46 062 4 gusting 6 24.4
2019-Sep-19 15:31 063 3 gusting 6 24.4
2019-Sep-19 15:16 105 1 gusting 6 24.4
2019-Sep-19 15:01 061 3 gusting 6 24.4
2019-Sep-19 14:46 113 4 gusting 6 24.4
2019-Sep-19 14:31 041 2 gusting 6 24.4
2019-Sep-19 14:16 133 4 gusting 6 24.4
2019-Sep-19 14:01 082 4 gusting 6 24.4
2019-Sep-19 13:46 118 3 gusting 6 24.4
2019-Sep-19 13:31 072 4 gusting 6 24.4
2019-Sep-19 13:16 060 4 gusting 6 24.4
2019-Sep-19 13:01 143 3 gusting 6 24.4
2019-Sep-19 12:46 049 5 gusting 6 25.0
2019-Sep-19 12:31 099 4 gusting 6 24.4
2019-Sep-19 12:16 077 3 gusting 7 25.0
2019-Sep-19 12:00 073 4 gusting 6 24.4
2019-Sep-19 11:46 062 4 gusting 6 25.0
2019-Sep-19 11:31 068 3 gusting 6 25.0
2019-Sep-19 11:16 067 2 gusting 6 24.4
2019-Sep-19 11:01 075 3 gusting 9 25.0
2019-Sep-19 10:46 080 4 gusting 7 24.4
2019-Sep-19 10:31 091 2 gusting 6 24.4
2019-Sep-19 10:16 055 3 gusting 6 23.9
2019-Sep-19 10:01 060 4 gusting 6 23.9
2019-Sep-19 09:46 085 4 gusting 6 23.9
2019-Sep-19 09:32 124 3 gusting 5 23.9
2019-Sep-19 09:15 075 3 gusting 6 23.9
2019-Sep-19 09:00 075 2 gusting 4 23.9
2019-Sep-19 08:45 058 1 gusting 3 23.9
2019-Sep-19 08:30 063 1 gusting 4 23.3
2019-Sep-19 08:16 077 1 gusting 3 23.3
2019-Sep-19 08:00 068 2 gusting 5 23.3
2019-Sep-19 07:45 079 23.9
2019-Sep-19 07:30 098 24.4
2019-Sep-19 07:15 084 24.4
2019-Sep-19 07:00 186 23.3
2019-Sep-19 06:45 205 22.2
2019-Sep-19 06:30 208 21.7
2019-Sep-19 06:15 338 21.7
2019-Sep-19 06:00 337 21.1
2019-Sep-19 05:45 337 21.1
2019-Sep-19 05:30 007 21.1
2019-Sep-19 05:16 355 21.1
2019-Sep-19 05:15 355 21.1
2019-Sep-19 05:01 280 21.7
2019-Sep-19 04:47 281 21.1
2019-Sep-19 04:32 288 21.1
2019-Sep-19 04:18 288 21.1
2019-Sep-19 04:01 276 21.1
2019-Sep-19 03:46 282 21.1
2019-Sep-19 03:31 273 21.1
2019-Sep-19 03:16 284 21.1
2019-Sep-19 03:01 264 0 gusting 2 21.1
2019-Sep-19 02:46 283 1 gusting 3 21.1
2019-Sep-19 02:31 262 2 gusting 4 21.1
2019-Sep-19 02:17 283 1 gusting 3 21.7
2019-Sep-19 02:02 280 2 gusting 4 21.7
2019-Sep-19 01:46 272 2 gusting 3 21.7
2019-Sep-19 01:31 267 1 gusting 2 21.7
2019-Sep-19 01:17 238 1 gusting 2 21.7
2019-Sep-19 01:01 222 1 gusting 2 22.2
2019-Sep-19 00:46 239 1 gusting 3 22.2
2019-Sep-19 00:31 225 0 gusting 2 22.2
2019-Sep-19 00:15 233 1 gusting 3 22.2
2019-Sep-19 00:01 210 1 gusting 2 22.2
2019-Sep-18 23:46 211 0 gusting 1 22.2
2019-Sep-18 23:30 228 1 gusting 2 22.2
2019-Sep-18 23:16 211 0 gusting 1 22.2
2019-Sep-18 23:01 224 0 gusting 1 22.2
2019-Sep-18 22:46 235 1 gusting 2 22.2
2019-Sep-18 22:30 235 22.8
2019-Sep-18 22:16 236 0 gusting 1 22.8
2019-Sep-18 22:00 236 0 gusting 1 22.8
2019-Sep-18 21:45 229 22.8
2019-Sep-18 21:30 195 22.8
2019-Sep-18 21:15 194 22.8
2019-Sep-18 21:00 198 22.8
2019-Sep-18 20:45 245 22.8
2019-Sep-18 20:31 256 22.8
2019-Sep-18 20:15 309 22.8
2019-Sep-18 20:01 086 22.8
2019-Sep-18 19:46 086 22.8
2019-Sep-18 19:30 087 23.3
2019-Sep-18 19:15 085 23.3
2019-Sep-18 19:00 084 23.3
2019-Sep-18 18:45 085 23.3
2019-Sep-18 18:30 084 23.3
2019-Sep-18 18:15 143 23.3
2019-Sep-18 18:00 108 0 gusting 1 23.9
2019-Sep-18 17:45 043 0 gusting 2 23.9
2019-Sep-18 17:30 087 0 gusting 2 23.9
2019-Sep-18 17:15 087 1 gusting 3 23.9
2019-Sep-18 17:00 102 0 gusting 3 24.4
2019-Sep-18 16:45 096 1 gusting 4 24.4
2019-Sep-18 16:30 110 3 gusting 4 24.4
2019-Sep-18 16:15 105 2 gusting 5 24.4
2019-Sep-18 16:00 089 3 gusting 5 24.4
2019-Sep-18 15:45 085 3 gusting 5 24.4
2019-Sep-18 15:30 103 3 gusting 6 25.0
2019-Sep-18 15:15 082 3 gusting 6 25.0
2019-Sep-18 15:00 086 4 gusting 6 25.6
2019-Sep-18 14:45 102 3 gusting 6 25.0
2019-Sep-18 14:30 063 4 gusting 5 25.6
2019-Sep-18 14:16 086 2 gusting 6 25.6
2019-Sep-18 14:02 055 3 gusting 6 25.0
2019-Sep-18 13:47 091 4 gusting 6 25.0
2019-Sep-18 13:32 075 3 gusting 7 25.0
2019-Sep-18 13:17 058 4 gusting 7 25.0
2019-Sep-18 13:02 099 4 gusting 6 25.0
2019-Sep-18 12:47 067 4 gusting 7 25.0
2019-Sep-18 12:33 058 4 gusting 6 25.0
2019-Sep-18 12:16 101 3 gusting 6 25.0
2019-Sep-18 12:02 087 4 gusting 6 25.0
2019-Sep-18 11:46 087 3 gusting 6 24.4
2019-Sep-18 11:32 114 4 gusting 6 24.4
2019-Sep-18 11:17 055 3 gusting 6 25.0
2019-Sep-18 11:02 061 3 gusting 6 24.4
2019-Sep-18 10:46 077 3 gusting 5 24.4
2019-Sep-18 10:31 044 4 gusting 6 24.4
2019-Sep-18 10:15 054 3 gusting 6 23.9
2019-Sep-18 10:01 068 4 gusting 6 23.9
2019-Sep-18 09:46 051 3 gusting 5 24.4
2019-Sep-18 09:31 101 3 gusting 6 23.9
2019-Sep-18 09:16 053 4 gusting 5 24.4
2019-Sep-18 09:01 062 2 gusting 5 24.4
2019-Sep-18 08:46 058 2 gusting 6 23.9
2019-Sep-18 08:32 054 2 gusting 4 24.4
2019-Sep-18 08:16 093 2 gusting 4 24.4
2019-Sep-18 08:00 266 23.3
2019-Sep-18 07:45 264 1 gusting 3 22.8
2019-Sep-18 07:31 287 2 gusting 4 22.2
2019-Sep-18 07:16 276 1 gusting 3 22.2
2019-Sep-18 07:01 273 1 gusting 3 21.7
2019-Sep-18 06:46 255 2 gusting 3 21.1
2019-Sep-18 06:30 235 1 gusting 3 21.1
2019-Sep-18 06:16 224 21.7
2019-Sep-18 06:01 187 22.2